Location: Aulnoy
(48.8410°N, 3.0967°E)
Time: 09:44:53
(UTC+00:00)

Cosmos 2074 Rocket - Pass Details

Date: 09 February 2023
Orbit: 967 x 985 km, 82.9° (Epoch: 23 March)

Event Time Altitude Azimuth Distance (km) Brightness Sun altitude
Rises 18:52:32 0° 354° (N) 3,703 7.1 -19.2°
Reaches altitude 10° 18:55:12 10° 1° (N) 2,752 6.3 -19.7°
Maximum altitude 19:01:13 44° 73° (ENE) 1,335 4.3 -20.6°
Enters shadow 19:03:04 35° 114° (ESE) 1,528 4.5 -21.0°
